Change the Weather History Date:

Wednesday, January 29, 2014

  Actual Average (KOFF) Record (KOFF)
Temperature  
Mean Temperature 24 °F -  
Max Temperature 45 °F 32 °F 45 °F (2014)
Min Temperature 4 °F 16 °F -5 °F (2004)
Degree Days  
Heating Degree Days 40    
Moisture  
Dew Point 2 °F    
Average Humidity 41    
Maximum Humidity 69    
Minimum Humidity 19    
Precipitation  
Precipitation 0.00 in - - ()
Sea Level Pressure  
Sea Level Pressure 29.96 in    
Wind  
Wind Speed 11 mph (South)    
Max Wind Speed 25 mph    
Max Gust Speed 32 mph    
Visibility 10 miles    
Events      
Averages and records for this station are not official NWS values.
T = Trace of Precipitation, MM = Missing Value Source: NWS Daily Summary

Daily Weather History Graph

Daily Weather History Graph

Search for Another Location

Airport or City:

Trip Planner

Search our weather history database for the weather conditions in past years. The results will help you decide how hot, cold, wet, or windy it might be!

Date:

Astronomy

Jan. 29, 2014 Rise Set
Actual Time 7:36 AM CST 5:37 PM CST
Civil Twilight 7:07 AM CST 6:06 PM CST
Nautical Twilight 6:34 AM CST 6:39 PM CST
Astronomical Twilight 6:02 AM CST 7:11 PM CST
Moon 6:14 AM CST (1/29) 4:38 PM CST (1/29)
Length of Visible Light 10h 58m
Length of Day
10h 00m
Waning Crescent, 2% of the Moon is Illuminated
Jan 29
Waning Crescent
Jan 30
New
Feb 6
First Quarter
Feb 14
Full
Feb 22
Last Quarter

Hourly Weather History & Observations

Time (CST) Temp. Windchill Dew Point Humidity Pressure Visibility Wind Dir Wind Speed Gust Speed Precip Events Conditions
12:15 AM 10.4 °F -1.5 °F -8.5 °F 42% 30.23 in 10.0 mi South 8.1 mph - N/A   Clear
12:35 AM 10.4 °F -0.4 °F -7.8 °F 44% 30.23 in 10.0 mi South 6.9 mph - N/A   Clear
12:55 AM 7.7 °F -3.7 °F -8.0 °F 49% 30.22 in 10.0 mi South 6.9 mph - N/A   Clear
1:15 AM 9.1 °F 2.6 °F -6.9 °F 48% 30.21 in 10.0 mi South 3.5 mph - N/A   Clear
1:35 AM 8.1 °F 1.4 °F -7.6 °F 49% 30.21 in 10.0 mi SSE 3.5 mph - N/A   Clear
1:55 AM 6.8 °F -0.1 °F -7.8 °F 51% 30.20 in 10.0 mi South 3.5 mph - N/A   Clear
2:15 AM 7.5 °F -1.1 °F -6.9 °F 52% 30.20 in 10.0 mi South 4.6 mph - N/A   Clear
2:35 AM 7.5 °F 0.8 °F -6.9 °F 52% 30.19 in 10.0 mi SSE 3.5 mph - N/A   Clear
2:55 AM 5.7 °F -3.2 °F -6.7 °F 57% 30.18 in 10.0 mi South 4.6 mph - N/A   Clear
3:15 AM 6.8 °F -0.1 °F -5.8 °F 56% 30.18 in 10.0 mi South 3.5 mph - N/A   Clear
3:35 AM 6.4 °F -2.4 °F -5.4 °F 58% 30.17 in 10.0 mi South 4.6 mph - N/A   Clear
3:55 AM 9.1 °F -0.7 °F -3.1 °F 58% 30.16 in 10.0 mi SSW 5.8 mph - N/A   Clear
4:15 AM 7.7 °F 1.0 °F -4.7 °F 57% 30.14 in 10.0 mi South 3.5 mph - N/A   Clear
4:35 AM 6.3 °F -2.6 °F -5.3 °F 59% 30.14 in 10.0 mi SSE 4.6 mph - N/A   Clear
4:55 AM 5.0 °F -5.6 °F -5.3 °F 63% 30.13 in 10.0 mi South 5.8 mph - N/A   Clear
5:15 AM 4.8 °F -7.1 °F -5.1 °F 64% 30.12 in 10.0 mi SSE 6.9 mph - N/A   Clear
5:35 AM 4.8 °F -7.1 °F -4.4 °F 66% 30.11 in 10.0 mi South 6.9 mph - N/A   Clear
5:55 AM 5.2 °F -6.7 °F -4.4 °F 65% 30.11 in 10.0 mi SSE 6.9 mph - N/A   Clear
6:15 AM 5.7 °F -4.8 °F -3.6 °F 65% 30.10 in 10.0 mi SSE 5.8 mph - N/A   Clear
6:35 AM 5.7 °F -4.8 °F -3.3 °F 66% 30.10 in 10.0 mi South 5.8 mph - N/A   Clear
6:55 AM 6.6 °F -5.0 °F -2.6 °F 66% 30.10 in 10.0 mi SSE 6.9 mph - N/A   Clear
7:15 AM 6.6 °F -5.0 °F -2.4 °F 67% 30.10 in 10.0 mi SSE 6.9 mph - N/A   Clear
7:35 AM 5.9 °F -7.0 °F -2.7 °F 68% 30.09 in 10.0 mi SSE 8.1 mph - N/A   Clear
7:55 AM 6.1 °F -6.8 °F -2.2 °F 69% 30.09 in 10.0 mi SSE 8.1 mph - N/A   Clear
8:15 AM 7.7 °F -5.8 °F -1.3 °F 67% 30.08 in 10.0 mi SSE 9.2 mph - N/A   Clear
8:35 AM 9.5 °F -5.2 °F -0.0 °F 65% 30.07 in 10.0 mi SSE 11.5 mph - N/A   Clear
8:55 AM 11.7 °F -3.8 °F 1.6 °F 64% 30.08 in 10.0 mi South 13.8 mph - N/A   Clear
9:15 AM 14.0 °F -1.4 °F 3.0 °F 62% 30.08 in 10.0 mi South 15.0 mph - N/A   Clear
9:35 AM 16.3 °F 2.1 °F 3.9 °F 58% 30.06 in 10.0 mi South 13.8 mph - N/A   Clear
9:55 AM 18.3 °F 4.6 °F 4.6 °F 55% 30.06 in 10.0 mi South 13.8 mph - N/A   Clear
10:15 AM 21.2 °F 7.3 °F 6.4 °F 53% 30.06 in 10.0 mi South 16.1 mph - N/A   Clear
10:35 AM 23.9 °F 10.3 °F 7.5 °F 50% 30.06 in 10.0 mi South 17.3 mph 23.0 mph N/A   Clear
10:55 AM 26.8 °F 14.1 °F 7.9 °F 45% 30.06 in 10.0 mi South 17.3 mph - N/A   Clear
11:15 AM 29.3 °F 17.7 °F 8.2 °F 41% 30.04 in 10.0 mi South 16.1 mph - N/A   Clear
11:35 AM 32.2 °F 21.4 °F 8.8 °F 38% 30.03 in 10.0 mi South 16.1 mph 20.7 mph N/A   Clear
11:55 AM 34.2 °F 23.0 °F 9.1 °F 35% 30.01 in 10.0 mi South 19.6 mph 25.3 mph N/A   Clear
12:15 PM 36.9 °F 27.1 °F 8.8 °F 31% 29.99 in 10.0 mi SSW 17.3 mph 24.2 mph N/A   Clear
12:35 PM 39.6 °F 29.7 °F 9.1 °F 29% 29.97 in 10.0 mi South 20.7 mph 26.5 mph N/A   Clear
12:55 PM 40.1 °F 29.9 °F 8.4 °F 27% 29.95 in 10.0 mi SSW 23.0 mph 28.8 mph N/A   Clear
1:15 PM 41.0 °F 31.9 °F 7.7 °F 25% 29.94 in 10.0 mi South 19.6 mph 32.2 mph N/A   Clear
1:35 PM 41.9 °F 32.8 °F 6.6 °F 23% 29.93 in 10.0 mi South 20.7 mph 28.8 mph N/A   Clear
1:55 PM 43.0 °F 34.2 °F 6.8 °F 23% 29.91 in 10.0 mi South 20.7 mph 28.8 mph N/A   Clear
2:15 PM 43.9 °F 35.2 °F 6.4 °F 22% 29.89 in 10.0 mi South 21.9 mph 27.6 mph N/A   Clear
2:35 PM 44.6 °F 37.2 °F 5.7 °F 20% 29.88 in 10.0 mi South 17.3 mph 29.9 mph N/A   Clear
2:55 PM 44.6 °F 35.7 °F 5.7 °F 20% 29.87 in 10.0 mi South 24.2 mph 29.9 mph N/A   Clear
3:15 PM 45.1 °F 36.2 °F 5.5 °F 20% 29.85 in 10.0 mi South 25.3 mph 29.9 mph N/A   Clear
3:35 PM 44.8 °F 36.4 °F 5.4 °F 20% 29.84 in 10.0 mi South 21.9 mph 28.8 mph N/A   Clear
3:55 PM 45.5 °F 37.3 °F 5.5 °F 19% 29.84 in 10.0 mi South 21.9 mph 25.3 mph N/A   Clear
4:15 PM 45.0 °F 36.4 °F 5.2 °F 20% 29.82 in 10.0 mi South 23.0 mph 28.8 mph N/A   Clear
4:35 PM 44.8 °F 36.2 °F 5.0 °F 20% 29.81 in 10.0 mi South 23.0 mph - N/A   Clear
4:55 PM 44.1 °F 35.9 °F 5.0 °F 20% 29.81 in 10.0 mi South 19.6 mph 24.2 mph N/A   Clear
5:15 PM 42.4 °F 34.7 °F 5.5 °F 22% 29.80 in 10.0 mi South 16.1 mph - N/A   Clear
5:35 PM 40.5 °F 32.5 °F 5.5 °F 24% 29.80 in 10.0 mi South 15.0 mph - N/A   Clear
5:55 PM 38.8 °F 30.4 °F 5.5 °F 25% 29.79 in 10.0 mi South 15.0 mph - N/A   Clear
6:15 PM 38.3 °F 30.1 °F 6.1 °F 26% 29.77 in 10.0 mi South 13.8 mph - N/A   Clear
6:35 PM 38.7 °F 29.8 °F 6.4 °F 26% 29.76 in 10.0 mi South 16.1 mph - N/A   Clear
6:55 PM 37.8 °F 28.6 °F 6.3 °F 27% 29.76 in 10.0 mi South 16.1 mph - N/A   Clear
7:15 PM 36.5 °F 27.0 °F 5.9 °F 28% 29.76 in 10.0 mi South 16.1 mph - N/A   Clear
7:35 PM 35.1 °F 25.2 °F 5.5 °F 29% 29.74 in 10.0 mi South 16.1 mph 21.9 mph N/A   Clear
7:55 PM 35.8 °F 26.1 °F 5.9 °F 29% 29.74 in 10.0 mi South 16.1 mph - N/A   Clear
8:15 PM 34.3 °F 24.2 °F 6.3 °F 31% 29.74 in 10.0 mi South 16.1 mph - N/A   Clear
8:35 PM 34.0 °F 23.8 °F 6.6 °F 32% 29.72 in 10.0 mi South 16.1 mph - N/A   Clear
8:55 PM 35.6 °F 25.2 °F 6.8 °F 30% 29.72 in 10.0 mi South 18.4 mph - N/A   Clear
9:15 PM 35.1 °F 24.8 °F 6.8 °F 31% 29.70 in 10.0 mi South 17.3 mph - N/A   Clear
9:35 PM 34.9 °F 24.2 °F 7.3 °F 32% 29.70 in 10.0 mi South 18.4 mph - N/A   Clear
9:55 PM 34.9 °F 23.9 °F 7.3 °F 32% 29.69 in 10.0 mi South 19.6 mph - N/A   Clear
10:15 PM 35.1 °F 23.8 °F 7.2 °F 31% 29.68 in 10.0 mi South 20.7 mph - N/A   Clear
10:35 PM 35.8 °F 25.1 °F 6.8 °F 30% 29.67 in 10.0 mi South 19.6 mph - N/A   Clear
10:55 PM 36.0 °F 25.0 °F 6.4 °F 29% 29.66 in 10.0 mi South 20.7 mph - N/A   Clear
11:15 PM 36.5 °F 26.0 °F 5.5 °F 27% 29.64 in 10.0 mi South 19.6 mph - N/A   Clear
11:35 PM 36.1 °F 25.0 °F 5.0 °F 27% 29.64 in 10.0 mi South 21.9 mph 27.6 mph N/A   Clear
11:55 PM 36.3 °F 24.9 °F 4.8 °F 27% 29.62 in 10.0 mi South 23.0 mph 28.8 mph N/A   Clear